| time (UTC) | temp F | wind direction | speed knots | gust knots | rain 1hr in | rain 24hr in | rain mn in | humidity % | barometer mb |
| 20260504044531 | 55 | 0 | 0.0 | 1.7 | 0.00 | 0.00 | 0.00 | 82 | 1019.1 |
| 20260504043032 | 55 | 269 | 0.0 | 1.7 | 0.00 | 0.00 | 0.00 | 81 | 1019.3 |
| 20260504041536 | 55 | 269 | 0.9 | 2.6 | 0.00 | 0.00 | 0.00 | 81 | 1019.3 |
| 20260504040033 | 55 | 0 | 0.0 | 0.9 | 0.00 | 0.00 | 0.00 | 80 | 1019.3 |
| 20260504034542 | 56 | 339 | 0.0 | 1.7 | 0.00 | 0.00 | 0.00 | 78 | 1019.2 |
| 20260504033033 | 56 | 0 | 0.0 | 0.0 | 0.00 | 0.00 | 0.00 | 78 | 1019.2 |
| 20260504031535 | 56 | 0 | 0.0 | 1.7 | 0.00 | 0.00 | 0.00 | 76 | 1019.3 |
| 20260504030039 | 57 | 0 | 0.0 | 0.0 | 0.00 | 0.00 | 0.00 | 77 | 1019.2 |
| 20260504024530 | 57 | 0 | 0.0 | 0.0 | 0.00 | 0.00 | 0.00 | 76 | 1019.1 |
| 20260504023034 | 58 | 0 | 0.0 | 0.0 | 0.00 | 0.00 | 0.00 | 75 | 1019.0 |
| 20260504021534 | 59 | 0 | 0.0 | 0.9 | 0.00 | 0.00 | 0.00 | 74 | 1019.0 |
| 20260504020038 | 59 | 0 | 0.0 | 1.7 | 0.00 | 0.00 | 0.00 | 70 | 1018.7 |
| 20260504014534 | 60 | 0 | 0.0 | 0.9 | 0.00 | 0.00 | 0.00 | 66 | 1018.6 |
| 20260504013032 | 61 | 0 | 0.0 | 0.0 | 0.00 | 0.00 | 0.00 | 66 | 1018.5 |
| 20260504011533 | 62 | 0 | 0.0 | 0.0 | 0.00 | 0.00 | 0.00 | 63 | 1018.4 |
| 20260504010040 | 64 | 0 | 0.0 | 0.0 | 0.00 | 0.00 | 0.00 | 58 | 1018.3 |
| 20260504004534 | 66 | 0 | 0.0 | 0.9 | 0.00 | 0.00 | 0.00 | 56 | 1017.9 |
| 20260504003032 | 68 | 0 | 0.0 | 0.9 | 0.00 | 0.00 | 0.00 | 54 | 1017.8 |
| 20260504001535 | 70 | 0 | 0.0 | 1.7 | 0.00 | 0.00 | 0.00 | 50 | 1017.7 |
| 20260504000034 | 72 | 0 | 0.9 | 4.3 | 0.00 | 0.00 | 0.00 | 44 | 1017.8 |
| 20260503234535 | 74 | 344 | 1.7 | 4.3 | 0.00 | 0.00 | 0.00 | 39 | 1017.8 |
| 20260503233035 | 75 | 9 | 0.0 | 3.5 | 0.00 | 0.00 | 0.00 | 38 | 1017.7 |
| 20260503231545 | 75 | 325 | 0.9 | 4.3 | 0.00 | 0.00 | 0.00 | 35 | 1017.9 |
| 20260503230034 | 75 | 309 | 0.9 | 6.1 | 0.00 | 0.00 | 0.00 | 35 | 1017.8 |
| 20260503224534 | 76 | 0 | 0.9 | 4.3 | 0.00 | 0.00 | 0.00 | 35 | 1018.0 |
| 20260503223035 | 76 | 0 | 1.7 | 7.8 | 0.00 | 0.00 | 0.00 | 34 | 1018.0 |
| 20260503221535 | 76 | 21 | 3.5 | 8.7 | 0.00 | 0.00 | 0.00 | 34 | 1018.0 |
| 20260503220038 | 76 | 351 | 2.6 | 7.8 | 0.00 | 0.00 | 0.00 | 33 | 1018.2 |
| 20260503214542 | 76 | 19 | 3.5 | 10.4 | 0.00 | 0.00 | 0.00 | 33 | 1018.2 |
| 20260503213050 | 76 | 103 | 1.7 | 7.8 | 0.00 | 0.00 | 0.00 | 31 | 1018.3 |
| 20260503211549 | 76 | 350 | 1.7 | 8.7 | 0.00 | 0.00 | 0.00 | 33 | 1018.5 |
| 20260503210035 | 76 | 0 | 2.6 | 7.0 | 0.00 | 0.00 | 0.00 | 32 | 1018.6 |
| 20260503204550 | 75 | 321 | 3.5 | 9.6 | 0.00 | 0.00 | 0.00 | 32 | 1018.7 |
| 20260503203035 | 76 | 0 | 3.5 | 9.6 | 0.00 | 0.00 | 0.00 | 33 | 1019.1 |
| 20260503201532 | 76 | 298 | 2.6 | 8.7 | 0.00 | 0.00 | 0.00 | 33 | 1019.4 |
| 20260503200034 | 75 | 319 | 1.7 | 7.8 | 0.00 | 0.00 | 0.00 | 33 | 1019.6 |
| 20260503194534 | 75 | 355 | 3.5 | 12.2 | 0.00 | 0.00 | 0.00 | 31 | 1020.0 |
| 20260503193034 | 75 | 298 | 1.7 | 13.0 | 0.00 | 0.00 | 0.00 | 32 | 1020.2 |
| 20260503191533 | 75 | 36 | 3.5 | 8.7 | 0.00 | 0.00 | 0.00 | 33 | 1020.2 |
| 20260503190033 | 74 | 331 | 4.3 | 10.4 | 0.00 | 0.00 | 0.00 | 32 | 1020.6 |
| 20260503184534 | 74 | 205 | 1.7 | 11.3 | 0.00 | 0.00 | 0.00 | 36 | 1020.8 |
| 20260503183041 | 74 | 277 | 1.7 | 8.7 | 0.00 | 0.00 | 0.00 | 32 | 1020.9 |
| 20260503181534 | 74 | 333 | 3.5 | 11.3 | 0.00 | 0.00 | 0.00 | 33 | 1021.2 |
| 20260503180035 | 74 | 108 | 4.3 | 8.7 | 0.00 | 0.00 | 0.00 | 32 | 1021.5 |
| 20260503174544 | 74 | 5 | 2.6 | 12.2 | 0.00 | 0.00 | 0.00 | 34 | 1021.5 |
| 20260503173032 | 73 | 327 | 2.6 | 7.8 | 0.00 | 0.00 | 0.00 | 34 | 1021.7 |
| 20260503171534 | 73 | 35 | 2.6 | 10.4 | 0.00 | 0.00 | 0.00 | 34 | 1021.9 |
| 20260503081545 | 48 | 0 | 0.0 | 0.0 | 0.00 | 0.10 | 0.00 | 85 | 1019.8 |
| 20260503071554 | 50 | 0 | 0.0 | 0.0 | 0.00 | 0.19 | 0.00 | 79 | 1019.1 |
| 20260503054550 | 55 | 0 | 0.0 | 1.7 | 0.00 | 0.27 | 0.00 | 66 | 1019.0 |
| 20260503053030 | 57 | 0 | 0.0 | 1.7 | 0.00 | 0.27 | 0.00 | 62 | 1019.0 |